Printer-friendly version

IAU Minor Planet Center

Minor Planet Center

MPEC 2005-N01 : 2005 ML13

The following Minor Planet Electronic Circular may be linked-to from your own Web pages, but must not otherwise be redistributed electronically.


Read MPEC 2005-M66 Read MPEC 2005-N02


M.P.E.C. 2005-N01                                Issued 2005 July 1, 12:23 UT

     The Minor Planet Electronic Circulars contain information on unusual
         minor planets and routine data on comets.  They are published
   on behalf of Commission 20 of the International Astronomical Union by the
          Minor Planet Center, Smithsonian Astrophysical Observatory,
                          Cambridge, MA 02138, U.S.A.

                  Supported in part by the Brinson Foundation
             Prepared using the Tamkin Foundation Computer Network

                              MPC@CFA.HARVARD.EDU
          URL http://cfa-www.harvard.edu/iau/mpc.html  ISSN 1523-6714

                                   2005 ML13

Observations:
     K05M13L* C2005 06 28.25603 16 44 23.28 +38 06 08.6          20.2 V EN001703
     K05M13L  C2005 06 28.26267 16 44 21.01 +38 06 34.9          19.7 V EN001703
     K05M13L  C2005 06 28.26922 16 44 18.96 +38 07 00.4          20.2 V EN001703
     K05M13L  C2005 06 28.27579 16 44 16.94 +38 07 24.3          20.1 V EN001703
     K05M13L  C2005 06 28.88300 16 41 24.78 +38 46 37.2          19.4 R EN001599
     K05M13L  C2005 06 28.88446 16 41 24.36 +38 46 42.0          19.8 R EN001599
     K05M13L  C2005 06 28.89645 16 41 20.30 +38 47 28.9          19.3 R EN001599
     K05M13L  C2005 06 28.89814 16 41 19.81 +38 47 35.1          20.4 R EN001599
     K05M13L  C2005 06 28.89983 16 41 19.21 +38 47 43.4          19.7 R EN001599
     K05M13L  C2005 06 28.90154 16 41 18.78 +38 47 48.4          19.9 R EN001599
     K05M13L  C2005 06 30.18826 16 34 43.46 +40 13 52.7          19.6 V EN001703
     K05M13L  C2005 06 30.18915 16 34 43.10 +40 13 56.9          19.6 V EN001703
     K05M13L  C2005 06 30.19001 16 34 42.78 +40 14 00.4          19.4 V EN001703
     K05M13L  C2005 06 30.19089 16 34 42.49 +40 14 03.3          19.5 V EN001703
     K05M13L  C2005 06 30.19177 16 34 42.06 +40 14 07.8          19.4 V EN001703
     K05M13L  C2005 06 30.19264 16 34 41.80 +40 14 11.0          19.5 V EN001703
     K05M13L  C2005 06 30.19351 16 34 41.48 +40 14 13.5          19.5 V EN001703
     K05M13L  C2005 06 30.19439 16 34 41.12 +40 14 18.1          19.7 V EN001703
     K05M13L  C2005 07 01.05302 16 29 47.02 +41 12 38.5                 EN001J95
     K05M13L  C2005 07 01.05731 16 29 45.34 +41 12 56.9          20.2 R EN001J95
     K05M13L 5C2005 07 01.22928 16 28 49.12 +41 25 37.0          19.5 R EN001673
     K05M13L 5C2005 07 01.23206 16 28 48.09 +41 25 48.0                 EN001673
     K05M13L 5C2005 07 01.23900 16 28 45.28 +41 26 17.5                 EN001673
     K05M13L  C2005 07 01.24152 16 28 43.46 +41 26 31.2          19.6 R EN001651
     K05M13L  C2005 07 01.24263 16 28 43.06 +41 26 36.2          19.8 R EN001651
     K05M13L  C2005 07 01.24374 16 28 42.71 +41 26 40.7          19.6 R EN001651
     K05M13L 5C2005 07 01.24444 16 28 43.19 +41 26 39.5                 EN001673

Observer details:
599 Campo Imperatore-CINEOS.  Observers R. Leoni, A. Boattini.  Measurers
    R. Leoni, A. Boattini, A. Di Paola, E. Dotto.  0.60-m f/3.1 Schmidt + CCD.
651 Grasslands Observatory, Tucson.  Observer J. E. McGaha.  0.62-m f/5.1
    Newtonian reflector + CCD.
673 Table Mountain Observatory, Wrightwood.  Observer J. Young.  0.6-m
    reflector + CCD.
703 Catalina Sky Survey.  Observer A. Odell.  Measurers E. C. Beshore,
    C. M. Casey, E. J. Christensen, G. J. Garradd, A. D. Grauer, R. E. Hill,
    S. M. Larson, R. H. McNaught.  0.68-m Schmidt + CCD.
J95 Great Shefford.  Observer P. Birtwhistle.  0.40-m f/6.0 Schmidt-Cassegrain
    + CCD.

Orbital elements:
2005 ML13
Epoch 2005 June 19.0 TT = JDT 2453540.5                 MPC
M 293.29950              (2000.0)            P               Q
n   0.80159301     Peri.  220.60933     +0.99673877     -0.03030716
a   1.1477134      Node   140.93362     +0.05215323     +0.94916388
e   0.2462915      Incl.    6.81536     -0.06157807     +0.31331998
P   1.23           H   22.5           G   0.15
From 27 observations 2005 June 28-July 1.

Ephemeris:
2005 ML13                a,e,i = 1.15, 0.25, 7                   q = 0.8650
Date    TT    R. A. (2000) Decl.     Delta      r     Elong.  Phase     V
2005 06 29    16 40.84   +38 54.3    0.104    1.061   112.7    62.2    19.9
2005 07 01    16 30.16   +41 09.4    0.0982   1.053   109.0    65.9    19.9
2005 07 03    16 17.53   +43 32.1    0.0928   1.045   105.0    70.0    19.9
2005 07 05    16 02.40   +46 02.0    0.0878   1.037   100.7    74.6    19.9
2005 07 07    15 44.04   +48 37.7    0.0831   1.029    95.9    79.5    19.9
2005 07 09    15 21.45   +51 15.7    0.0788   1.021    90.6    85.0    20.0
2005 07 11    14 53.45   +53 49.2    0.0749   1.013    84.9    90.9    20.1
2005 07 13    14 18.74   +56 06.7    0.0715   1.005    78.6    97.4    20.3
2005 07 15    13 36.55   +57 50.7    0.0688   0.997    71.8   104.5    20.5
2005 07 17    12 47.64   +58 39.3    0.0668   0.989    64.5   112.0    20.9
2005 07 19    11 55.26   +58 13.0    0.0657   0.982    56.9   119.9    21.4

                       (Last issue was M.P.E.C. 2005-M66)

Timothy B. Spahr             (C) Copyright 2005 MPC           M.P.E.C. 2005-N01

Read MPEC 2005-M66 Read MPEC 2005-N02


Our Web policy. Index to the CBAT/MPC/ICQ pages.


Valid HTML 4.01!